Wind_Speed
7 7 7 7 7 7 7 6 6 5 5 5 5 5 5 5 6 6 5 6 6 6 5 6 6 5 5 6 6 6 6 6 6 6 7 7 8 10 11 11 11 11 11
8 8 8 8 7 7 7 6 6 6 6 5 5 6 6 6 6 6 6 6 6 6 6 6 7 7 6 6 7 8 8 7 7 6 7 8 9 11 12 11 11 11 11
8 8 8 8 8 8 8 7 7 6 6 6 6 6 6 6 6 7 7 6 6 7 7 7 8 8 8 8 7 8 8 8 8 7 8 8 9 10 11 12 12 12 13
8 8 8 9 9 8 8 8 8 8 7 7 7 7 7 7 7 7 7 7 7 7 8 8 8 8 9 8 8 8 8 8 9 8 8 9 9 10 11 13 14 13 13
9 9 9 10 9 9 8 8 8 9 8 8 7 7 7 7 7 7 7 8 8 8 8 9 9 9 9 9 9 9 9 10 9 9 9 10 10 11 12 12 13 13 13
9 10 10 10 10 10 9 9 9 10 9 8 8 8 8 8 8 8 8 9 9 9 9 9 9 9 10 10 10 10 10 10 9 9 9 11 12 12 12 12 13 13 13
11 11 11 10 10 10 10 10 10 10 9 9 8 8 8 9 9 9 9 10 9 9 9 9 9 10 10 10 10 11 10 10 10 10 10 10 11 11 12 13 13 13 13
11 11 12 12 11 11 11 11 11 10 9 9 9 8 8 9 9 10 10 10 10 9 9 10 10 10 10 10 10 10 10 10 11 11 10 10 11 11 12 14 14 13 13
11 11 12 13 12 11 11 11 11 10 10 10 9 9 10 10 10 10 11 11 11 11 11 11 11 11 11 10 10 11 11 11 11 10 10 10 11 11 12 13 14 14 14
12 12 12 12 11 10 10 10 10 11 11 11 11 11 11 11 11 11 11 11 11 12 12 12 12 12 12 12 12 12 12 12 11 10 10 10 10 10 11 13 14 15 15
13 13 13 13 11 11 10 10 10 12 12 12 12 12 12 12 12 11 11 11 12 12 13 12 13 13 13 13 13 13 13 13 12 11 10 10 10 10 12 12 13 14 14
13 13 14 13 12 12 11 10 11 12 13 13 13 12 12 12 12 12 12 12 13 13 13 13 13 13 14 14 14 13 13 13 12 11 10 10 11 11 12 13 13 13 13
13 13 13 12 12 12 12 12 12 13 13 13 13 13 13 13 13 13 14 14 15 15 15 14 14 14 15 15 15 14 14 13 13 12 11 11 11 11 12 13 14 15 15
13 12 12 12 11 12 13 13 14 13 13 13 14 14 14 14 14 15 15 15 16 15 15 15 15 15 15 15 15 15 15 14 14 14 13 12 12 12 12 13 14 15 15
14 13 13 12 12 13 14 13 12 13 13 14 14 15 15 15 16 16 17 17 16 15 15 16 16 15 15 15 15 15 15 15 15 13 13 13 13 13 13 13 14 15 15
15 15 15 14 13 13 13 13 14 14 14 14 14 14 14 15 16 16 16 17 17 16 16 16 16 15 15 15 15 15 15 16 16 15 15 15 14 14 14 14 14 14 15
16 16 16 15 14 14 14 14 14 15 14 15 15 16 15 15 15 16 16 17 17 16 15 16 16 16 16 15 15 14 15 16 17 17 16 16 16 16 15 15 15 16 16
17 16 17 16 15 15 16 15 15 16 15 16 17 17 17 15 15 16 17 17 17 16 16 16 16 16 16 16 15 15 15 16 16 17 17 18 18 18 17 16 16 17 17
17 17 18 18 17 17 17 16 16 16 17 17 18 18 17 16 16 16 16 17 17 16 16 16 16 16 16 16 16 16 17 17 18 18 19 19 18 18 18 18 18 18 18
17 17 18 18 18 17 17 17 17 17 17 18 18 18 17 17 17 16 16 16 17 17 16 16 16 17 17 17 17 17 18 18 18 19 19 19 19 19 19 19 18 18 19
17 17 18 18 16 17 17 17 18 18 18 18 18 18 18 18 17 17 17 16 16 17 17 17 17 17 18 18 17 18 19 19 18 19 19 19 19 20 20 19 19 19 19
18 18 18 18 17 18 18 19 19 19 19 19 18 19 18 17 17 17 17 16 17 17 17 16 16 17 18 17 18 19 19 19 19 19 19 19 19 19 19 20 20 20 20
19 19 19 18 18 19 19 19 19 20 19 19 19 18 18 17 18 18 18 17 17 17 17 17 16 16 16 18 19 19 19 19 18 18 19 19 19 19 20 20 20 19 19
19 19 19 18 18 19 19 19 19 19 19 19 19 18 18 18 18 18 18 18 18 17 18 18 17 16 16 17 17 17 17 18 17 17 18 19 19 20 20 21 21 21 21
19 19 19 18 18 18 18 18 18 18 18 19 19 19 18 18 18 18 19 19 19 18 18 18 17 17 17 17 17 17 18 18 18 18 17 18 18 19 19 20 20 21 21
20 20 19 19 18 18 18 18 18 18 18 19 19 19 19 19 18 19 18 18 19 18 18 17 18 17 17 18 18 18 18 19 19 18 18 18 18 19 19 19 20 20 21
Wind_Direction
301 302 300 301 301 297 293 283 275 272 267 259 254 253 253 254 250 247 247 247 248 247 247 248 250 260 258 245 247 244 244 239 240 238 231 230 231 231 226 218 217 218 219
299 300 298 298 303 301 290 275 271 270 270 267 260 258 255 256 255 254 255 252 249 249 251 254 255 259 268 259 248 249 251 250 250 240 232 231 232 231 222 222 225 223 223
302 304 301 298 303 302 287 275 272 272 277 274 266 261 256 253 253 256 256 255 253 251 252 254 256 259 264 264 256 255 254 252 254 244 238 232 232 231 230 232 231 227 226
301 301 299 300 301 299 290 281 278 276 279 274 268 266 256 251 253 257 260 261 259 258 257 256 257 261 264 264 259 260 257 258 254 249 247 241 236 236 238 236 232 230 232
299 298 295 295 297 295 291 286 283 280 283 279 273 266 257 255 258 261 263 263 264 264 263 263 262 262 265 264 264 266 264 259 250 251 252 243 238 238 237 238 236 232 233
300 302 300 295 291 290 289 285 284 283 282 281 277 267 262 262 268 268 266 265 265 264 265 266 264 263 265 265 267 268 268 259 255 252 249 243 241 239 239 238 234 233 234
298 302 302 299 293 289 288 287 285 282 277 277 277 270 268 271 271 272 271 273 271 269 267 266 266 265 267 265 263 265 269 260 259 258 254 249 245 244 243 238 237 235 234
299 302 301 301 298 293 289 285 283 278 273 276 279 276 273 272 274 274 277 277 276 275 272 271 269 268 268 266 264 266 269 268 269 267 263 257 249 254 246 240 237 237 236
300 302 303 300 299 298 293 283 279 277 276 277 280 278 276 274 274 276 279 280 279 279 277 275 272 271 268 265 264 266 268 269 267 268 269 261 253 255 249 245 236 235 238
298 301 302 299 302 302 298 288 283 277 276 279 279 277 278 279 279 278 279 281 283 283 282 275 273 271 270 267 264 267 268 267 265 263 265 263 259 257 251 244 239 239 241
294 299 303 300 302 302 300 292 284 279 277 279 278 277 277 280 280 279 277 277 281 282 280 276 271 272 271 269 268 268 267 266 263 259 259 260 261 260 255 249 244 243 244
297 298 298 302 302 302 299 290 285 282 279 279 278 277 276 278 280 281 280 280 280 278 277 276 272 274 273 271 269 267 265 264 263 258 256 259 261 260 257 251 248 246 247
300 297 297 299 301 294 289 290 285 284 283 283 282 280 279 279 280 280 280 281 280 277 276 274 273 275 274 269 266 266 263 260 261 259 256 258 261 260 257 253 251 250 250
295 294 298 293 292 293 288 285 283 286 288 286 287 286 284 286 286 284 284 284 280 276 275 274 274 275 274 270 265 263 259 255 256 261 257 261 263 261 258 253 249 249 250
290 290 295 303 302 297 289 289 286 288 290 290 290 290 290 290 291 288 286 286 283 278 276 274 273 274 271 270 267 260 259 256 255 259 260 261 264 264 262 260 255 253 255
293 291 297 300 303 297 294 290 289 294 295 293 292 291 292 290 290 289 287 287 286 283 280 275 272 270 269 267 267 264 262 258 258 262 262 262 261 260 261 262 259 259 257
293 293 292 293 297 295 293 289 288 289 291 291 294 294 291 289 288 287 288 289 286 284 283 279 273 269 267 265 266 265 263 263 265 264 263 263 262 260 258 259 257 258 257
293 292 294 295 295 293 291 289 289 291 290 289 293 294 291 289 290 289 290 290 285 281 281 280 277 271 268 266 265 265 266 267 269 268 264 261 261 261 259 258 259 257 255
291 292 294 295 293 291 290 289 290 291 290 290 291 291 289 288 291 292 291 290 287 283 282 278 274 271 267 267 266 266 266 266 270 271 267 264 261 259 260 259 259 259 258
291 292 293 293 292 288 286 285 288 291 292 292 292 288 288 292 291 291 291 292 290 288 285 279 272 267 266 267 267 268 268 267 267 269 269 266 265 262 261 263 261 261 261
290 292 295 295 290 288 286 286 287 290 292 294 293 291 290 291 292 291 290 291 291 289 287 281 275 269 266 267 268 269 270 270 269 268 267 267 266 263 262 262 262 262 261
289 292 294 294 289 288 289 287 286 290 292 292 292 292 291 292 293 294 292 290 289 291 289 284 277 274 272 269 270 271 269 270 270 268 267 268 266 263 262 261 263 262 262
288 289 290 292 291 290 289 288 289 290 291 292 293 292 291 292 291 293 292 290 290 291 290 286 281 277 276 273 272 274 274 271 271 271 268 268 268 265 262 262 264 264 265
286 286 288 291 291 291 291 291 289 288 289 291 293 293 292 291 291 293 291 290 290 288 287 286 282 276 274 274 275 277 277 275 273 273 271 271 268 267 266 264 265 266 267
284 285 286 287 288 290 292 292 290 288 288 289 292 292 292 291 291 291 290 289 289 288 285 283 279 276 273 274 275 276 277 275 274 274 274 272 268 266 266 264 264 265 266
282 283 284 286 287 289 291 291 291 290 290 290 292 291 291 291 291 290 287 286 288 288 285 281 277 276 274 274 276 277 277 274 272 275 276 273 269 267 266 265 263 264 267
Height
5885 5884 5883 5883 5882 5882 5881 5881 5880 5880 5880 5879 5879 5879 5879 5879 5879 5879 5879 5879 5879 5880 5880 5880 5880 5880 5880 5880 5880 5880 5880 5881 5882 5882 5883 5884 5884 5885 5886 5887 5889 5890 5892
5884 5883 5882 5882 5881 5881 5880 5879 5879 5879 5879 5878 5878 5878 5878 5878 5878 5878 5878 5878 5878 5878 5879 5879 5879 5879 5879 5879 5879 5879 5879 5880 5880 5881 5882 5882 5883 5883 5884 5886 5887 5889 5891
5883 5882 5881 5881 5880 5879 5878 5878 5878 5878 5878 5877 5877 5877 5877 5877 5877 5877 5877 5877 5877 5877 5877 5878 5878 5878 5878 5878 5878 5878 5878 5879 5879 5880 5881 5881 5881 5881 5883 5885 5886 5887 5889
5882 5881 5880 5880 5879 5879 5878 5877 5877 5877 5876 5876 5876 5875 5875 5875 5875 5875 5876 5876 5876 5876 5876 5876 5876 5877 5877 5877 5877 5877 5877 5878 5878 5878 5879 5880 5880 5881 5882 5883 5885 5886 5887
5880 5880 5879 5879 5878 5877 5877 5876 5876 5875 5875 5874 5874 5874 5874 5874 5874 5874 5874 5874 5874 5874 5874 5874 5874 5875 5875 5875 5875 5875 5876 5876 5877 5877 5878 5878 5879 5880 5881 5882 5883 5884 5886
5879 5878 5878 5877 5877 5876 5875 5875 5874 5874 5873 5873 5872 5872 5872 5872 5872 5872 5872 5872 5872 5872 5872 5872 5872 5873 5873 5873 5874 5874 5874 5874 5875 5876 5877 5877 5878 5879 5880 5880 5881 5883 5884
5878 5877 5876 5876 5875 5874 5874 5873 5873 5872 5872 5871 5871 5870 5870 5870 5870 5870 5870 5871 5871 5871 5870 5871 5871 5871 5871 5871 5872 5872 5872 5872 5873 5874 5875 5875 5876 5877 5878 5878 5880 5881 5882
5876 5875 5875 5874 5873 5873 5872 5872 5871 5870 5870 5869 5869 5869 5869 5868 5868 5868 5869 5869 5869 5869 5869 5869 5869 5869 5869 5869 5870 5870 5870 5870 5871 5872 5872 5874 5874 5874 5875 5876 5877 5879 5880
5874 5874 5873 5872 5872 5871 5870 5869 5869 5869 5868 5868 5867 5867 5867 5867 5867 5866 5867 5867 5867 5867 5866 5866 5866 5867 5867 5867 5867 5868 5868 5869 5869 5870 5871 5871 5872 5872 5873 5874 5875 5876 5878
5872 5872 5871 5870 5870 5869 5868 5867 5867 5867 5866 5866 5866 5866 5865 5865 5865 5864 5864 5865 5865 5864 5864 5864 5864 5864 5864 5865 5865 5865 5866 5866 5867 5868 5869 5869 5870 5870 5871 5872 5873 5874 5875
5870 5869 5868 5868 5868 5867 5867 5866 5865 5865 5864 5864 5864 5864 5863 5863 5863 5862 5862 5862 5862 5862 5861 5861 5861 5861 5862 5862 5862 5863 5863 5863 5864 5865 5866 5867 5868 5868 5869 5870 5871 5872 5873
5868 5867 5866 5865 5866 5865 5864 5862 5862 5863 5862 5862 5862 5861 5861 5860 5860 5860 5859 5859 5859 5859 5859 5858 5858 5858 5859 5859 5860 5860 5860 5861 5862 5862 5864 5865 5866 5866 5867 5867 5868 5869 5871
5866 5864 5863 5863 5862 5862 5862 5860 5860 5860 5860 5859 5859 5859 5858 5858 5857 5857 5857 5856 5856 5856 5856 5856 5856 5856 5855 5856 5856 5857 5858 5858 5859 5860 5861 5862 5863 5863 5864 5865 5866 5867 5868
5863 5862 5862 5862 5861 5860 5859 5858 5858 5858 5857 5857 5856 5856 5856 5855 5855 5854 5853 5853 5852 5852 5852 5852 5852 5852 5852 5852 5853 5854 5854 5855 5856 5857 5858 5859 5860 5861 5861 5862 5863 5864 5865
5862 5861 5860 5859 5858 5857 5857 5855 5854 5855 5855 5854 5854 5853 5853 5852 5851 5851 5850 5850 5849 5848 5848 5848 5848 5848 5848 5848 5849 5849 5851 5851 5852 5852 5854 5855 5857 5857 5858 5859 5860 5861 5862
5860 5859 5858 5857 5856 5855 5854 5854 5852 5852 5852 5852 5851 5850 5850 5849 5848 5847 5847 5846 5845 5844 5844 5844 5844 5844 5844 5844 5845 5846 5847 5847 5848 5849 5850 5852 5853 5854 5854 5855 5856 5857 5858
5857 5857 5856 5855 5854 5853 5852 5851 5851 5850 5850 5849 5849 5847 5846 5845 5845 5844 5843 5842 5841 5840 5840 5839 5839 5840 5840 5841 5841 5842 5843 5843 5845 5846 5846 5848 5849 5850 5850 5851 5852 5853 5854
5855 5854 5853 5852 5851 5850 5849 5848 5848 5847 5847 5846 5845 5844 5842 5842 5841 5840 5839 5838 5837 5836 5836 5836 5835 5836 5836 5837 5838 5838 5839 5840 5841 5842 5842 5843 5844 5845 5846 5847 5848 5849 5850
5852 5851 5850 5849 5848 5848 5847 5846 5845 5844 5844 5843 5842 5841 5840 5839 5838 5837 5836 5835 5833 5832 5832 5832 5832 5832 5833 5833 5834 5835 5835 5836 5836 5837 5837 5838 5840 5841 5842 5843 5844 5844 5846
5848 5848 5847 5845 5845 5844 5843 5842 5842 5841 5840 5839 5838 5837 5836 5835 5834 5833 5832 5831 5830 5829 5828 5828 5828 5828 5829 5829 5830 5831 5831 5831 5831 5832 5832 5833 5834 5836 5837 5838 5839 5840 5841
5845 5845 5843 5842 5841 5840 5840 5839 5838 5838 5837 5836 5835 5834 5833 5832 5831 5830 5829 5828 5827 5826 5825 5824 5824 5824 5825 5825 5826 5826 5826 5826 5826 5827 5828 5828 5829 5830 5832 5833 5834 5835 5836
5842 5841 5840 5839 5838 5837 5837 5836 5835 5834 5833 5832 5831 5830 5829 5828 5827 5826 5825 5824 5824 5823 5822 5821 5821 5820 5820 5820 5821 5821 5822 5822 5822 5822 5822 5823 5823 5825 5826 5828 5829 5830 5831
5838 5837 5837 5836 5835 5834 5833 5832 5831 5830 5830 5829 5828 5826 5825 5824 5823 5822 5821 5821 5820 5819 5818 5817 5817 5817 5816 5816 5816 5816 5816 5816 5817 5817 5817 5818 5819 5820 5821 5822 5823 5824 5825
5834 5834 5833 5832 5831 5830 5829 5828 5827 5827 5826 5825 5824 5823 5821 5820 5819 5818 5817 5817 5816 5815 5815 5814 5813 5813 5812 5812 5812 5811 5811 5811 5811 5812 5813 5814 5814 5815 5816 5817 5818 5819 5819
5831 5830 5829 5828 5828 5827 5826 5825 5824 5823 5822 5821 5820 5819 5818 5817 5815 5814 5813 5813 5812 5811 5810 5810 5809 5808 5808 5808 5808 5807 5807 5806 5806 5807 5808 5809 5809 5810 5810 5812 5812 5813 5814
5826 5826 5825 5825 5824 5823 5822 5821 5820 5819 5818 5817 5816 5815 5814 5813 5812 5810 5809 5808 5808 5807 5806 5805 5805 5804 5804 5803 5803 5802 5802 5802 5802 5802 5802 5803 5804 5804 5805 5805 5806 5807 5808